Regional Weather Roundup
Issued by NWS

Home | Current Version | Previous Version | Graphics & Text | Print | Product List | Glossary On
Versions: 1 2 3 4 5 6 7 8 9 10 11 12 13 14 15 16 17 18 19 20 21 22 23 24 25 26 27 28 29 30 31 32 33 34 35 36 37 38 39 40 41 42 43 44 45 46 47 48 49 50
000
ASUS43 KMPX 172010
RWRMN
WEATHER ROUNDUP FOR MINNESOTA
NATIONAL WEATHER SERVICE TWIN CITIES/CHANHASSEN MN
200 PM CST WED DEC 17 2014


NOTE: "FAIR" INDICATES FEW OR NO CLOUDS BELOW 12,000 FEET WITH NO
SIGNIFICANT WEATHER AND/OR OBSTRUCTIONS TO VISIBILITY. N/A MEANS
CURRENT SKY AND/OR WEATHER CONDITIONS ARE NOT AVAILABLE.

MNZ060>063-068>070-172100-
   Twin Cities Metro

CITY           SKY/WX    TMP DP  RH WIND       PRES   REMARKS
TWIN CITIES    MOSUNNY   19  10  68 N8        30.29F WCI   9
ST PAUL        MOSUNNY   19  11  70 NW6       30.31F WCI  11
CRYSTAL        MOSUNNY   18   9  68 NW6       30.29S WCI  10
BLAINE         PTSUNNY   19  10  68 N5        30.29  WCI  13
LAKEVILLE      SUNNY     18  10  73 NW7       30.27F WCI   8
EDEN PRAIRIE   SUNNY     20   9  62 NW9       30.27F WCI   9
SOUTH ST PAUL  MOSUNNY   20  11  70 W5        30.30S WCI  13
LAKE ELMO      CLOUDY    19  12  73 N8        30.30S WCI   9
$$
MNZ001>005-007-008-013>017-022>024-027-028-172100-
   Northwest Minnesota

CITY           SKY/WX    TMP DP  RH WIND       PRES   REMARKS
BEMIDJI        SUNNY     20  12  72 CALM      30.28S
HALLOCK        SUNNY     16  10  79 CALM      30.35F
ROSEAU         PTSUNNY   16   9  73 CALM      30.34R
WARROAD        MOSUNNY   10   7  85 CALM      30.33S
THIEF RVR FALL CLOUDY    16  12  86 NW3       30.33F
CROOKSTON      CLOUDY    16  12  86 N5        30.35F WCI   9
FOSSTON        MOSUNNY   19  12  73 NW5       30.31F WCI  13
DETROIT LAKES  LGT SNOW  14  12  92 NW7       30.30S WCI   4
MOORHEAD       SUNNY     18  14  86 N7        30.34F WCI   8
PARK RAPIDS    SUNNY     21  11  65 N6        30.26F WCI  13
MAHNOMEN       LGT SNOW  13   9  82 NW3       30.31S
$$
MNZ006-009>011-018-025>026-172100-
   North Central Minnesota

CITY           SKY/WX    TMP DP  RH WIND       PRES   REMARKS
BAUDETTE       SUNNY     19  10  68 VRB3      30.30S
FLAG ISLAND    SUNNY     14   9  79 W3        30.32S
INTL FALLS     SUNNY     19   6  57 NE7       30.29F WCI  10
WASKISH        SUNNY     21  16  79 CALM      30.30S
BIG FORK       SUNNY     21  10  63 N6        30.27F WCI  14
LONGVILLE      SUNNY     19  10  68 NW3       30.28S
GRAND RAPIDS   SUNNY     19  10  68 NW7       30.25S WCI  10
CRANE LAKE     SUNNY     19   9  63 NW5       30.30S WCI  13
ORR            SUNNY     19   9  63 CALM      30.24S
COOK           SUNNY     19  10  68 N5        30.26F WCI  13
WALKER         FAIR      18  10  70 N5        30.27F WCI  11
$$
MNZ012-019>021-037-172100-
   Northeast Minnesota

CITY           SKY/WX    TMP DP  RH WIND       PRES   REMARKS
DULUTH         MOSUNNY   19  10  68 N6        30.23R WCI  11
ELY            MOSUNNY   18  10  73 NE6       30.24S WCI   9
HIBBING        SUNNY     21  10  62 N8        30.24F WCI  11
EVELETH        MOSUNNY   21  12  68 N7        30.25S WCI  13
DULUTH HARBOR  PTSUNNY   21  12  68 CALM      30.30S
TWO HARBORS    PTSUNNY   25  16  68 CALM      30.23S
SILVER BAY     PTSUNNY   25  14  63 CALM      30.22S
GRAND MARAIS     N/A     23  10  57 VRB6      30.25R WCI  16
G MARAIS ARPRT CLOUDY    14   7  73 N14G20    30.17S WCI  -1
$$
MNZ029>031-032-039>041-046>048-054>057-064-172100-
   West Central Minnesota

CITY           SKY/WX    TMP DP  RH WIND       PRES   REMARKS
FERGUS FALLS   SUNNY     14   9  79 N6        30.34F WCI   5
WHEATON        SUNNY     12   9  85 N5        30.34S WCI   4
MORRIS         SUNNY     18  10  73 N10       30.29F WCI   6
ALEXANDRIA     SUNNY     16   9  74 NW7       30.28S WCI   6
ELBOW LAKE     FAIR      13   9  85 N6        30.30S WCI   3
WADENA         SUNNY     18  10  73 NW3       30.27F
GLENWOOD       SUNNY     18  12  79 NW7       30.28S WCI   8
APPLETON       SUNNY     18  12  79 W3        30.31F
BENSON         SUNNY     18  10  73 NE12      30.29F WCI   5
ORTONVILLE     SUNNY     16   9  73 NW5       30.30F WCI   9
MADISON        SUNNY     18  12  79 NW3       30.31F
WILLMAR        FAIR      18  10  73 N8        30.29F WCI   7
$$
MNZ033>034-036-042>043-049>051-058-059-172100-
   Central Minnesota

CITY           SKY/WX    TMP DP  RH WIND       PRES   REMARKS
ST CLOUD       PTSUNNY   18   9  68 N7        30.29F WCI   9
SAUK CENTRE    FAIR      16   9  76 NW3       30.28F
PAYNESVILLE    SUNNY     15  10  81 W7        30.28F WCI   5
AITKIN         MOSUNNY   21  10  63 CALM      30.26S
PINE RIVER     MOSUNNY   18  10  73 NW3       30.30S
BRAINERD       MOSUNNY   18   9  68 N5        30.28F WCI  11
STAPLES        MOSUNNY   16  10  79 CALM      30.27F
LONG PRAIRIE   FAIR      18  10  73 NW5       30.28S WCI  11
LITTLE FALLS   FLURRIES  16   9  73 CALM      30.30S
LITCHFIELD     SUNNY     18  14  86 NW6       30.28F WCI   9
BUFFALO        MOSUNNY   19  10  70 W3        30.30F
MAPLE LAKE     PTSUNNY   20  14  77 NW7       30.29F WCI  11
$$
MNZ037-044-045-052-053-172100-
   East Central Minnesota

CITY           SKY/WX    TMP DP  RH WIND       PRES   REMARKS
PRINCETON      FLURRIES  19  10  68 NW7       30.29S WCI  10
MORA           MOSUNNY   18   9  68 W6        30.30S WCI   9
CAMBRIDGE      FLURRIES  18   9  68 NW3       30.28S
RUSH CITY      CLOUDY    19   9  67 CALM      30.29S
MOOSE LAKE     FLURRIES  19  12  73 NW5       30.25F WCI  13
HINCKLEY       CLOUDY    19  10  68 CALM      30.28S
CLOQUET        FLURRIES  18  10  73 N6        30.25R WCI   9
MCGREGOR       CLOUDY    19  12  73 NW3       30.27S
$$
MNZ071>073-080-081-089-090-097-098-172100-
   Southwest Minnesota

CITY           SKY/WX    TMP DP  RH WIND       PRES   REMARKS
MONTEVIDEO     SUNNY     19  18  93 CALM      30.31F
GRANITE FALLS  SUNNY     15  11  83 W7        30.32F WCI   5
CANBY          SUNNY     17  12  81 N6        30.31F WCI   8
MARSHALL       SUNNY     12   7  79 N5        30.30S WCI   4
REDWOOD FALLS  SUNNY     19  11  70 NW9       30.29F WCI   8
OLIVIA         SUNNY     21  14  73 NW7       30.28F WCI  13
PIPESTONE      SUNNY     18  12  79 CALM      30.24F
WINDOM         SUNNY     18  12  79 NW6       30.26F WCI   9
WORTHINGTON    SUNNY     18  12  79 N5        30.25F WCI  11
JACKSON        SUNNY     21  14  73 NW7       30.25F WCI  13
TRACY          SUNNY     15  11  83 NW3       30.28F
SLAYTON        SUNNY     17  13  86 CALM      30.26F
$$
MNZ065>067-074>077-082>085-091>093-172100-
   South Central Minnesota

CITY           SKY/WX    TMP DP  RH WIND       PRES   REMARKS
MANKATO        SUNNY     19  10  68 NW7       30.28S WCI  10
NEW ULM        SUNNY     18  12  79 W7        30.29S WCI   8
ST JAMES       SUNNY     18  12  79 W8        30.30F WCI   7
FAIRMONT       SUNNY     19  10  68 N7        30.27F WCI  10
GLENCOE        SUNNY     21  15  79 NW6       30.28F WCI  13
FARIBAULT      SUNNY     19  12  73 NW7       30.27F WCI  10
OWATONNA       MOSUNNY   19  12  73 NW8       30.26S WCI   9
WASECA         SUNNY     19  14  79 NW8       30.28F WCI   9
ALBERT LEA     SUNNY     21  16  79 NW7       30.25F WCI  13
$$
MNZ078>079-086>088-094>096-172100-
   Southeast Minnesota

CITY           SKY/WX    TMP DP  RH WIND       PRES   REMARKS
ROCHESTER      MOSUNNY   19  13  77 NW12      30.24F WCI   7
RED WING       LGT SNOW  19  10  68 N7        30.29S WCI  10
STANTON        MOSUNNY   20  12  72 NW8       30.27F WCI  10
DODGE CENTER   MOSUNNY   18  16  93 N10       30.24S WCI   6
WINONA         MOSUNNY   21  14  73 N8        30.29S WCI  12
AUSTIN         SUNNY     19  14  79 NW9       30.25F WCI   9
PRESTON        MOSUNNY   19  13  78 NW9       30.25S WCI   8
$$
ABBREVIATIONS USED IN REMARKS
   TC - TEMPERATURES IN CELSIUS
  WCI - WIND CHILL INDEX
   HX - HEAT INDEX
  VSB - VISIBILITY
$$


USA.gov is the U.S. government's official web portal to all federal, state and local government web resources and services.